User: anonymous   Login
Location: Hancock Field Station
(44.9202°N, 120.4259°W)
Time: 12:24:05
(UTC-07:00)
Language:

Cosmos 1707 - Orbit

View from above orbital plane
View from above orbital plane
View from above satellite
View from above satellite

Ground track
Ground track

The orbit data is extracted from the following two-line orbital elements,

1 16326U 85113A   18111.52011871  .00000631  00000-0  33342-4 0  9992
2 16326  82.5094 265.3593 0009535 324.2046  35.8545 15.13669790763984
Epoch (UTC): 21 April 2018 12:28:58
Eccentricity: 0.0009535
inclination: 82.5094°
perigee height: 518 km
apogee height: 531 km
right ascension of ascending node: 265.3593°
argument of perigee: 324.2046°
revolutions per day: 15.13669790
mean anomaly at epoch: 35.8545°
orbit number at epoch: 76398

The dashed part of the orbit path shows where the satellite is in the earth's shadow,  

DLR